SCP
0 0 0 0 0 0 0 -0 0 0 -0 -0 -0 0 0 0 0 0 0 0 0 0 0 -0 0 0 -0 -0 -0 -0 -0 0 0 0 -0 -0 -0 0 0 0 0 -0 0
0 0 0 0 0 -0 -0 0 0 0 0 0 0 0 0 0 0 0 0 0 0 0 0 0 0 0 -0 -0 -0 -0 0 0 0 0 0 0 0 0 0 0 -0 0 -0
0 0 0 0 0 -0 -0 0 0 0 0 0 0 0 0 0 0 0 0 0 0 0 0 0 0 0 -0 -0 -0 -0 -0 0 0 0 -0 -0 -0 -0 -0 0 0 -0 -0
0 0 0 0 -0 0 -0 0 0 0 0 -0 0 0 0 0 0 0 0 0 0 0 0 0 0 0 0 0 0 0 -0 0 0 -0 -0 -0 -0 -0 0 0 0 -0 -0
0 0 0 0 -0 0 0 0 -0 -0 -0 0 0 0 0 0 0 0 0 0 0 0 0 0 0 0 0 0 0 0 0 0 0 0 0 0 0 0 0 0 -0 -0 -0
0 0 0 0 0 0 0 0 0 -0 0 -0 -0 0 0 0 0 0 0 0 0 0 0 0 0 0 0 0 0 0 0 0 0 0 0 0 0 0 -0 -0 0 0 -0
0 0 0 0 0 -0 -0 -0 0 0 0 0 0 0 0 0 0 0 0 0 0 0 0 0 0 0 0 0 0 0 0 -0 0 0 0 0 0 0 -0 0 0 0 0
0 0 0 0 -0 -0 0 0 0 0 0 0 0 0 0 0 0 0 0 0 0 0 0 0 0 0 0 0 0 0 0 0 -0 -0 0 0 0 -0 0 -0 -0 -0 -0
0 0 0 0 -0 -0 0 -0 0 0 0 0 0 0 0 0 0 0 0 0 0 0 0 0 0 0 0 0 0 0 0 -0 -0 0 0 0 0 0 0 0 0 -0 -0
0 -0 0 0 0 -0 -0 0 0 0 0 0 0 0 0 0 0 0 0 0 0 0 0 0 0 0 0 0 0 0 0 0 0 0 0 0 0 0 0 0 0 -0 0
0 -0 0 -0 -0 0 0 0 0 0 0 0 0 0 0 0 0 0 0 0 0 0 0 0 0 0 0 0 0 -0 -0 0 0 0 0 0 0 0 0 0 0 0 -0
0 0 -0 -0 -0 -0 0 0 0 0 0 0 0 0 0 0 0 0 0 0 0 0 0 0 0 0 0 0 -0 -0 -0 -0 -0 0 0 0 0 0 0 0 0 0 0
0 0 0 0 0 0 0 0 0 0 0 0 0 0 0 0 0 0 0 0 0 0 0 0 0 0 0 0 0 0 -0 0 0 0 0 0 0 0 0 0 0 0 0
0 0 0 -0 -0 0 0 0 0 0 0 0 0 0 0 0 0 0 0 0 0 0 0 0 0 0 0 0 0 0 0 0 0 0 0 0 0 0 0 0 0 0 0
0 0 0 -0 0 0 0 0 0 0 0 0 0 0 0 0 0 0 0 0 0 0 0 0 0 0 0 0 0 0 0 0 0 0 0 0 0 0 0 0 0 0 0
0 0 0 0 0 0 0 0 0 0 0 0 0 0 0 0 0 0 0 0 0 0 0 0 0 0 0 0 0 0 0 0 0 0 0 0 0 0 0 0 0 0 0
-0 0 0 0 0 0 0 0 0 0 0 0 0 0 0 0 0 0 0 0 0 0 0 0 0 0 0 0 0 0 0 0 0 0 0 0 0 0 0 0 0 0 0
-0 -0 0 0 -0 0 0 -0 -0 0 0 0 0 0 0 0 0 0 0 0 0 0 0 0 0 0 0 0 0 0 0 0 0 0 0 0 0 0 0 0 0 0 0
0 0 0 0 -0 0 -0 0 0 0 0 0 0 0 0 0 0 0 0 0 0 0 0 0 0 0 0 0 0 0 0 0 0 0 0 0 0 0 0 0 0 0 0
0 0 0 0 0 0 0 0 -0 -0 0 0 0 0 0 0 0 0 0 0 0 0 0 0 0 0 0 0 0 0 0 0 0 0 0 0 0 0 0 0 0 0 0
-0 -0 -0 -0 -0 0 0 0 0 0 0 0 0 0 0 0 0 0 0 0 0 0 0 0 0 0 0 0 0 0 0 0 0 0 0 0 0 0 0 0 0 0 0
-0 -0 -0 -0 -0 0 -0 0 0 0 0 0 0 0 0 0 0 0 0 0 0 0 0 0 0 0 0 0 0 0 0 0 0 0 0 0 0 0 0 0 0 0 0
-0 -0 -0 -0 0 0 0 0 0 0 0 0 0 0 0 0 0 0 0 0 0 0 0 0 0 0 0 0 0 0 0 0 0 0 0 0 0 0 0 0 0 0 0
-0 -0 -0 -0 -0 0 -0 -0 -0 0 0 0 0 0 0 0 0 0 0 0 0 0 0 0 0 0 0 0 0 0 0 0 0 0 0 0 0 0 0 0 0 0 0
-0 -0 -0 -0 -0 -0 0 0 0 0 0 0 0 0 0 0 0 0 0 0 0 0 0 0 0 0 0 0 0 0 0 0 0 0 0 0 0 0 0 0 0 0 0
-0 -0 -0 -0 0 0 0 0 0 0 0 0 0 0 0 0 0 0 0 0 0 0 0 0 0 0 0 0 0 0 0 0 0 0 0 0 0 0 0 0 0 0 0
Wind_Speed_500mb
19 18 14 11 8 5 2 5 8 15 21 23 23 27 31 33 37 34 32 31 32 33 33 34 35 34 33 30 29 29 31 28 28 30 31 36 39 41 42 49 52 51 46
18 15 12 8 4 2 5 7 10 16 22 28 30 32 38 39 34 33 34 30 26 28 26 29 36 33 40 39 38 37 37 31 34 35 33 33 36 40 45 47 49 61 53
16 14 8 4 3 5 10 14 18 24 30 31 35 36 35 26 33 31 25 28 27 26 29 22 19 26 31 38 41 41 37 35 36 43 43 39 38 42 43 47 52 57 60
14 11 6 5 7 11 16 20 24 29 33 32 32 28 26 25 25 23 25 24 22 18 14 15 15 18 19 21 27 39 30 35 37 41 43 48 44 40 42 45 49 53 60
13 12 10 13 13 16 22 26 28 35 34 31 30 28 28 18 13 19 22 18 20 18 20 16 17 18 18 21 24 23 22 28 35 44 45 45 34 42 45 45 41 46 53
15 12 14 17 18 21 27 31 35 32 32 30 28 26 18 12 10 23 23 18 19 18 17 19 19 20 19 21 24 25 28 32 36 39 38 37 37 39 44 38 41 41 45
18 8 13 18 25 31 34 37 36 32 25 24 29 24 11 10 13 23 13 14 18 20 21 23 25 27 25 19 21 26 26 30 31 34 33 27 31 26 39 43 48 49 51
26 21 22 24 30 37 37 33 33 28 27 22 21 21 16 9 7 6 8 17 24 27 27 27 27 27 22 20 22 18 24 27 28 24 29 23 23 22 32 33 49 41 41
31 28 29 34 39 40 34 28 24 29 29 22 20 14 10 7 22 4 10 24 29 28 25 23 23 23 13 14 13 18 27 24 22 21 25 21 22 13 11 29 34 35 35
33 32 33 40 40 32 28 26 25 24 26 23 20 18 15 15 8 12 18 23 22 25 23 19 14 15 12 11 11 16 20 21 24 25 25 25 21 18 12 13 23 33 37
26 29 41 34 25 22 25 30 24 22 29 22 24 24 18 15 15 11 20 24 17 23 19 21 22 16 10 8 11 13 18 22 26 27 28 25 24 22 21 18 18 23 28
30 32 25 20 21 19 7 13 19 17 23 15 18 15 14 11 11 11 16 19 17 12 9 15 20 22 20 12 11 14 18 19 24 28 29 25 25 25 25 24 19 18 20
25 14 14 19 20 24 26 23 18 21 19 11 11 10 10 11 12 17 18 14 13 10 3 10 14 19 18 17 14 16 19 22 27 27 29 29 30 29 25 24 24 20 17
7 10 17 18 14 13 12 16 14 13 11 8 7 8 12 13 14 17 13 11 11 6 4 7 12 19 21 21 21 21 24 27 28 30 29 28 27 25 23 21 18 19 20
13 16 14 16 15 14 10 10 11 9 5 6 8 9 7 12 15 11 8 8 5 8 5 12 14 29 28 24 22 22 24 25 27 29 30 28 26 26 24 22 21 21 20
17 15 11 11 7 5 2 2 1 5 7 4 3 6 8 7 8 10 10 10 8 5 5 15 21 24 23 23 24 25 23 24 28 30 28 27 29 29 29 26 24 21 19
14 10 7 1 1 1 3 3 3 4 6 7 8 10 12 16 15 14 12 11 10 5 4 9 15 18 21 23 24 26 27 29 35 33 32 29 27 26 26 26 25 24 23
7 7 5 4 3 5 3 1 3 8 11 15 18 15 17 18 17 17 17 17 17 12 8 4 6 14 16 21 24 29 29 28 28 31 32 33 33 33 31 29 29 28 25
8 5 1 6 8 8 7 9 13 14 14 17 19 20 24 22 23 24 22 21 22 22 19 14 15 17 19 21 22 22 22 23 27 30 32 34 36 36 36 35 33 30 29
5 2 9 12 13 13 15 15 15 16 18 19 20 21 22 22 24 23 25 27 24 21 22 21 21 22 24 28 28 32 27 23 30 26 28 33 34 32 30 30 30 32 32
6 13 12 14 15 14 16 16 17 18 19 18 19 21 22 24 24 26 26 27 27 27 26 26 26 25 28 29 35 32 28 23 25 32 23 31 30 27 27 29 32 34 35
14 15 18 16 15 14 16 18 16 16 18 19 19 20 21 24 25 26 29 29 29 30 30 22 23 25 30 27 30 30 28 26 24 26 26 24 30 26 23 26 34 36 36
16 20 19 17 14 15 17 15 16 17 18 21 25 25 24 22 21 21 23 22 21 21 23 24 23 23 21 22 25 26 26 24 23 24 27 21 25 22 18 19 29 34 37
20 19 19 17 14 19 18 15 15 18 22 27 28 28 26 24 21 15 17 18 19 19 21 23 22 21 22 24 27 28 30 29 25 24 29 24 26 22 19 17 28 35 38
22 22 21 18 16 19 21 19 20 23 23 24 25 24 23 22 23 22 18 18 19 20 23 23 25 26 25 26 28 22 26 27 25 22 20 27 27 29 24 18 25 36 31
24 23 21 19 17 18 24 24 22 22 22 23 21 20 20 21 20 19 20 19 18 20 20 19 20 21 23 25 27 29 29 27 29 24 27 29 27 28 27 18 31 31 30
Wind_Direction_500mb
157 158 162 156 152 155 207 291 305 312 317 318 319 312 315 310 307 302 296 302 301 303 292 287 282 275 274 278 274 277 269 254 249 244 252 255 250 243 237 234 222 223 218
159 164 162 169 187 222 308 307 304 312 322 325 316 309 312 313 316 314 298 302 307 311 302 293 279 287 273 276 282 285 280 273 256 256 251 236 241 245 242 236 238 227 219
161 170 171 202 263 284 296 304 305 314 322 318 321 320 318 317 320 321 315 310 308 305 310 300 300 303 287 277 280 294 278 284 275 264 257 251 245 238 243 241 235 234 223
176 188 201 255 295 308 310 312 310 313 321 321 325 336 335 326 336 336 331 323 320 313 315 314 306 314 324 310 296 297 275 279 292 295 274 254 250 254 246 243 239 234 230
193 214 241 267 287 301 308 310 314 319 323 324 332 339 337 335 342 5 358 348 336 313 307 313 326 329 335 338 338 335 322 313 304 306 295 303 268 268 268 241 241 238 238
202 225 252 273 290 299 305 310 313 313 316 317 328 339 346 330 318 327 341 344 360 1 343 331 314 321 327 338 337 330 322 316 316 318 312 310 295 293 271 242 236 234 236
210 245 283 289 293 295 298 306 312 311 317 312 322 337 15 325 296 337 312 326 337 338 336 336 327 319 317 327 331 325 326 325 322 325 323 311 272 252 247 248 235 233 237
233 266 285 295 294 295 299 304 301 309 314 318 316 328 337 320 318 317 335 323 325 327 325 327 324 316 314 322 333 341 333 329 342 342 339 342 332 298 228 242 240 237 246
249 265 281 292 297 296 296 295 294 301 305 313 312 323 333 316 329 254 343 344 340 341 337 333 332 325 326 340 350 358 4 8 8 4 3 359 356 360 263 254 236 260 263
247 260 277 290 293 288 284 282 284 292 304 309 308 302 303 296 306 314 329 355 360 359 359 353 342 349 353 353 348 356 13 19 17 17 9 3 360 353 334 294 270 267 264
239 264 283 281 276 277 275 280 278 299 298 291 294 297 304 307 302 296 322 340 1 2 2 18 16 11 358 358 354 355 1 7 13 8 359 359 353 340 328 310 283 268 267
268 275 271 261 270 275 271 314 282 313 322 295 291 297 302 308 302 316 318 328 334 340 336 358 10 23 26 8 348 344 343 348 355 354 359 357 350 344 333 323 312 302 284
274 266 281 276 269 260 279 309 290 288 305 296 295 303 316 316 317 313 315 318 322 335 2 332 338 359 1 359 354 342 342 342 341 340 343 343 343 336 334 329 322 311 296
309 255 275 291 294 290 280 289 295 295 283 276 277 292 293 295 295 303 316 323 333 341 4 351 337 333 337 340 340 332 328 328 333 337 343 344 346 344 327 320 312 314 314
259 277 284 288 292 287 275 271 267 264 260 270 298 293 291 297 302 316 324 328 327 330 350 324 355 339 349 353 349 348 345 348 345 347 345 347 353 349 343 331 316 304 297
284 285 277 279 280 250 257 192 235 289 330 305 310 301 299 313 340 338 332 321 315 298 297 329 345 349 356 355 351 347 348 345 350 355 350 351 349 347 347 352 348 334 315
253 258 265 244 100 40 204 260 299 5 27 53 65 60 57 50 45 41 29 13 352 322 321 328 338 342 336 339 348 343 350 355 347 340 345 350 353 353 349 350 352 350 352
320 321 345 340 153 137 127 102 38 81 79 86 78 67 63 55 49 47 48 49 51 53 69 53 10 12 355 358 352 350 355 358 359 7 12 12 14 15 13 8 5 359 350
300 297 50 126 118 117 97 96 96 98 95 86 80 75 74 72 72 69 69 69 65 65 73 73 47 29 23 20 20 16 13 10 19 12 13 14 13 12 12 12 14 16 14
284 154 134 132 123 114 115 104 98 96 94 93 92 86 80 74 73 67 63 62 58 59 53 54 55 46 40 37 31 30 20 22 20 23 13 14 17 10 9 10 12 11 9
171 136 129 128 122 107 99 92 94 99 99 95 87 81 77 73 70 69 70 68 64 60 55 55 53 46 40 32 30 26 25 26 24 29 23 17 14 19 18 15 23 23 18
147 133 127 118 107 104 98 103 101 98 99 95 89 85 87 87 83 73 67 65 62 61 56 54 40 33 30 26 25 21 19 17 9 3 11 359 15 15 19 27 23 16 12
145 132 127 119 108 97 97 99 103 104 103 94 88 89 98 91 83 73 63 55 49 45 42 37 28 20 10 4 6 10 3 360 350 346 356 356 358 2 8 360 7 3 0
148 138 130 121 107 105 100 104 107 106 106 99 91 88 86 79 73 66 43 31 35 22 20 17 13 11 10 2 356 353 353 359 354 350 352 341 342 343 334 331 352 356 353
154 146 139 129 119 115 111 109 111 112 105 98 93 85 77 71 61 48 27 17 6 9 14 11 5 2 358 351 348 357 352 356 350 344 348 345 335 338 333 315 336 337 346
160 154 155 148 134 119 110 110 112 108 102 94 90 85 70 60 43 23 11 15 23 31 30 15 357 347 344 349 357 3 5 0 355 352 337 351 338 340 337 325 330 338 341
Wind_Speed_850mb
19 18 14 11 8 5 2 5 8 15 21 23 23 27 31 33 37 34 32 31 32 33 33 34 35 34 33 30 29 29 31 28 28 30 31 36 39 41 42 49 52 51 46
18 15 12 8 4 2 5 7 10 16 22 28 30 32 38 39 34 33 34 30 26 28 26 29 36 33 40 39 38 37 37 31 34 35 33 33 36 40 45 47 49 61 53
16 14 8 4 3 5 10 14 18 24 30 31 35 36 35 26 33 31 25 28 27 26 29 22 19 26 31 38 41 41 37 35 36 43 43 39 38 42 43 47 52 57 60
14 11 6 5 7 11 16 20 24 29 33 32 32 28 26 25 25 23 25 24 22 18 14 15 15 18 19 21 27 39 30 35 37 41 43 48 44 40 42 45 49 53 60
13 12 10 13 13 16 22 26 28 35 34 31 30 28 28 18 13 19 22 18 20 18 20 16 17 18 18 21 24 23 22 28 35 44 45 45 34 42 45 45 41 46 53
15 12 14 17 18 21 27 31 35 32 32 30 28 26 18 12 10 23 23 18 19 18 17 19 19 20 19 21 24 25 28 32 36 39 38 37 37 39 44 38 41 41 45
18 8 13 18 25 31 34 37 36 32 25 24 29 24 11 10 13 23 13 14 18 20 21 23 25 27 25 19 21 26 26 30 31 34 33 27 31 26 39 43 48 49 51
26 21 22 24 30 37 37 33 33 28 27 22 21 21 16 9 7 6 8 17 24 27 27 27 27 27 22 20 22 18 24 27 28 24 29 23 23 22 32 33 49 41 41
31 28 29 34 39 40 34 28 24 29 29 22 20 14 10 7 22 4 10 24 29 28 25 23 23 23 13 14 13 18 27 24 22 21 25 21 22 13 11 29 34 35 35
33 32 33 40 40 32 28 26 25 24 26 23 20 18 15 15 8 12 18 23 22 25 23 19 14 15 12 11 11 16 20 21 24 25 25 25 21 18 12 13 23 33 37
26 29 41 34 25 22 25 30 24 22 29 22 24 24 18 15 15 11 20 24 17 23 19 21 22 16 10 8 11 13 18 22 26 27 28 25 24 22 21 18 18 23 28
30 32 25 20 21 19 7 13 19 17 23 15 18 15 14 11 11 11 16 19 17 12 9 15 20 22 20 12 11 14 18 19 24 28 29 25 25 25 25 24 19 18 20
25 14 14 19 20 24 26 23 18 21 19 11 11 10 10 11 12 17 18 14 13 10 3 10 14 19 18 17 14 16 19 22 27 27 29 29 30 29 25 24 24 20 17
7 10 17 18 14 13 12 16 14 13 11 8 7 8 12 13 14 17 13 11 11 6 4 7 12 19 21 21 21 21 24 27 28 30 29 28 27 25 23 21 18 19 20
13 16 14 16 15 14 10 10 11 9 5 6 8 9 7 12 15 11 8 8 5 8 5 12 14 29 28 24 22 22 24 25 27 29 30 28 26 26 24 22 21 21 20
17 15 11 11 7 5 2 2 1 5 7 4 3 6 8 7 8 10 10 10 8 5 5 15 21 24 23 23 24 25 23 24 28 30 28 27 29 29 29 26 24 21 19
14 10 7 1 1 1 3 3 3 4 6 7 8 10 12 16 15 14 12 11 10 5 4 9 15 18 21 23 24 26 27 29 35 33 32 29 27 26 26 26 25 24 23
7 7 5 4 3 5 3 1 3 8 11 15 18 15 17 18 17 17 17 17 17 12 8 4 6 14 16 21 24 29 29 28 28 31 32 33 33 33 31 29 29 28 25
8 5 1 6 8 8 7 9 13 14 14 17 19 20 24 22 23 24 22 21 22 22 19 14 15 17 19 21 22 22 22 23 27 30 32 34 36 36 36 35 33 30 29
5 2 9 12 13 13 15 15 15 16 18 19 20 21 22 22 24 23 25 27 24 21 22 21 21 22 24 28 28 32 27 23 30 26 28 33 34 32 30 30 30 32 32
6 13 12 14 15 14 16 16 17 18 19 18 19 21 22 24 24 26 26 27 27 27 26 26 26 25 28 29 35 32 28 23 25 32 23 31 30 27 27 29 32 34 35
14 15 18 16 15 14 16 18 16 16 18 19 19 20 21 24 25 26 29 29 29 30 30 22 23 25 30 27 30 30 28 26 24 26 26 24 30 26 23 26 34 36 36
16 20 19 17 14 15 17 15 16 17 18 21 25 25 24 22 21 21 23 22 21 21 23 24 23 23 21 22 25 26 26 24 23 24 27 21 25 22 18 19 29 34 37
20 19 19 17 14 19 18 15 15 18 22 27 28 28 26 24 21 15 17 18 19 19 21 23 22 21 22 24 27 28 30 29 25 24 29 24 26 22 19 17 28 35 38
22 22 21 18 16 19 21 19 20 23 23 24 25 24 23 22 23 22 18 18 19 20 23 23 25 26 25 26 28 22 26 27 25 22 20 27 27 29 24 18 25 36 31
24 23 21 19 17 18 24 24 22 22 22 23 21 20 20 21 20 19 20 19 18 20 20 19 20 21 23 25 27 29 29 27 29 24 27 29 27 28 27 18 31 31 30
Wind_Direction_850mb
157 158 162 156 152 155 207 291 305 312 317 318 319 312 315 310 307 302 296 302 301 303 292 287 282 275 274 278 274 277 269 254 249 244 252 255 250 243 237 234 222 223 218
159 164 162 169 187 222 308 307 304 312 322 325 316 309 312 313 316 314 298 302 307 311 302 293 279 287 273 276 282 285 280 273 256 256 251 236 241 245 242 236 238 227 219
161 170 171 202 263 284 296 304 305 314 322 318 321 320 318 317 320 321 315 310 308 305 310 300 300 303 287 277 280 294 278 284 275 264 257 251 245 238 243 241 235 234 223
176 188 201 255 295 308 310 312 310 313 321 321 325 336 335 326 336 336 331 323 320 313 315 314 306 314 324 310 296 297 275 279 292 295 274 254 250 254 246 243 239 234 230
193 214 241 267 287 301 308 310 314 319 323 324 332 339 337 335 342 5 358 348 336 313 307 313 326 329 335 338 338 335 322 313 304 306 295 303 268 268 268 241 241 238 238
202 225 252 273 290 299 305 310 313 313 316 317 328 339 346 330 318 327 341 344 360 1 343 331 314 321 327 338 337 330 322 316 316 318 312 310 295 293 271 242 236 234 236
210 245 283 289 293 295 298 306 312 311 317 312 322 337 15 325 296 337 312 326 337 338 336 336 327 319 317 327 331 325 326 325 322 325 323 311 272 252 247 248 235 233 237
233 266 285 295 294 295 299 304 301 309 314 318 316 328 337 320 318 317 335 323 325 327 325 327 324 316 314 322 333 341 333 329 342 342 339 342 332 298 228 242 240 237 246
249 265 281 292 297 296 296 295 294 301 305 313 312 323 333 316 329 254 343 344 340 341 337 333 332 325 326 340 350 358 4 8 8 4 3 359 356 360 263 254 236 260 263
247 260 277 290 293 288 284 282 284 292 304 309 308 302 303 296 306 314 329 355 360 359 359 353 342 349 353 353 348 356 13 19 17 17 9 3 360 353 334 294 270 267 264
239 264 283 281 276 277 275 280 278 299 298 291 294 297 304 307 302 296 322 340 1 2 2 18 16 11 358 358 354 355 1 7 13 8 359 359 353 340 328 310 283 268 267
268 275 271 261 270 275 271 314 282 313 322 295 291 297 302 308 302 316 318 328 334 340 336 358 10 23 26 8 348 344 343 348 355 354 359 357 350 344 333 323 312 302 284
274 266 281 276 269 260 279 309 290 288 305 296 295 303 316 316 317 313 315 318 322 335 2 332 338 359 1 359 354 342 342 342 341 340 343 343 343 336 334 329 322 311 296
309 255 275 291 294 290 280 289 295 295 283 276 277 292 293 295 295 303 316 323 333 341 4 351 337 333 337 340 340 332 328 328 333 337 343 344 346 344 327 320 312 314 314
259 277 284 288 292 287 275 271 267 264 260 270 298 293 291 297 302 316 324 328 327 330 350 324 355 339 349 353 349 348 345 348 345 347 345 347 353 349 343 331 316 304 297
284 285 277 279 280 250 257 192 235 289 330 305 310 301 299 313 340 338 332 321 315 298 297 329 345 349 356 355 351 347 348 345 350 355 350 351 349 347 347 352 348 334 315
253 258 265 244 100 40 204 260 299 5 27 53 65 60 57 50 45 41 29 13 352 322 321 328 338 342 336 339 348 343 350 355 347 340 345 350 353 353 349 350 352 350 352
320 321 345 340 153 137 127 102 38 81 79 86 78 67 63 55 49 47 48 49 51 53 69 53 10 12 355 358 352 350 355 358 359 7 12 12 14 15 13 8 5 359 350
300 297 50 126 118 117 97 96 96 98 95 86 80 75 74 72 72 69 69 69 65 65 73 73 47 29 23 20 20 16 13 10 19 12 13 14 13 12 12 12 14 16 14
284 154 134 132 123 114 115 104 98 96 94 93 92 86 80 74 73 67 63 62 58 59 53 54 55 46 40 37 31 30 20 22 20 23 13 14 17 10 9 10 12 11 9
171 136 129 128 122 107 99 92 94 99 99 95 87 81 77 73 70 69 70 68 64 60 55 55 53 46 40 32 30 26 25 26 24 29 23 17 14 19 18 15 23 23 18
147 133 127 118 107 104 98 103 101 98 99 95 89 85 87 87 83 73 67 65 62 61 56 54 40 33 30 26 25 21 19 17 9 3 11 359 15 15 19 27 23 16 12
145 132 127 119 108 97 97 99 103 104 103 94 88 89 98 91 83 73 63 55 49 45 42 37 28 20 10 4 6 10 3 360 350 346 356 356 358 2 8 360 7 3 0
148 138 130 121 107 105 100 104 107 106 106 99 91 88 86 79 73 66 43 31 35 22 20 17 13 11 10 2 356 353 353 359 354 350 352 341 342 343 334 331 352 356 353
154 146 139 129 119 115 111 109 111 112 105 98 93 85 77 71 61 48 27 17 6 9 14 11 5 2 358 351 348 357 352 356 350 344 348 345 335 338 333 315 336 337 346
160 154 155 148 134 119 110 110 112 108 102 94 90 85 70 60 43 23 11 15 23 31 30 15 357 347 344 349 357 3 5 0 355 352 337 351 338 340 337 325 330 338 341